Year,Month,Day,Hour,Minute,Value (Times are PST for temperature in C)
2012,09,17,00,00,19.80
2012,09,17,00,01,19.80
2012,09,17,00,02,19.80
2012,09,17,00,03,19.80
2012,09,17,00,04,19.80
2012,09,17,00,05,19.90
2012,09,17,00,06,19.90
2012,09,17,00,07,19.90
2012,09,17,00,08,19.90
2012,09,17,00,09,20.00
2012,09,17,00,10,20.00
2012,09,17,00,11,20.10
2012,09,17,00,12,20.20
2012,09,17,00,13,20.30
2012,09,17,00,14,20.30
2012,09,17,00,15,20.30
2012,09,17,00,16,20.30
2012,09,17,00,17,20.30
2012,09,17,00,18,20.30
2012,09,17,00,19,20.40
2012,09,17,00,20,20.40
2012,09,17,00,21,20.40
2012,09,17,00,22,20.40
2012,09,17,00,23,20.40
2012,09,17,00,24,20.40
2012,09,17,00,25,20.30
2012,09,17,00,26,20.30
2012,09,17,00,27,20.30
2012,09,17,00,28,20.30
2012,09,17,00,29,20.40
2012,09,17,00,30,20.50
2012,09,17,00,31,20.50
2012,09,17,00,32,20.60
2012,09,17,00,33,20.60
2012,09,17,00,34,20.70
2012,09,17,00,35,20.80
2012,09,17,00,36,20.80
2012,09,17,00,37,20.80
2012,09,17,00,38,20.90
2012,09,17,00,39,20.90
2012,09,17,00,40,20.90
2012,09,17,00,41,20.90
2012,09,17,00,42,20.90
2012,09,17,00,43,20.90
2012,09,17,00,44,20.90
2012,09,17,00,45,20.90
2012,09,17,00,46,20.90
2012,09,17,00,47,20.90
2012,09,17,00,48,20.80
2012,09,17,00,49,20.80
2012,09,17,00,50,20.80
2012,09,17,00,51,20.80
2012,09,17,00,52,20.80
2012,09,17,00,53,20.80
2012,09,17,00,54,20.80
2012,09,17,00,55,20.80
2012,09,17,00,56,20.80
2012,09,17,00,57,20.70
2012,09,17,00,58,20.70
2012,09,17,00,59,20.70
2012,09,17,01,00,20.60
2012,09,17,01,01,20.60
2012,09,17,01,02,20.60
2012,09,17,01,03,20.60
2012,09,17,01,04,20.60
2012,09,17,01,05,20.60
2012,09,17,01,06,20.60
2012,09,17,01,07,20.60
2012,09,17,01,08,20.60
2012,09,17,01,09,20.60
2012,09,17,01,10,20.60
2012,09,17,01,11,20.60
2012,09,17,01,12,20.60
2012,09,17,01,13,20.50
2012,09,17,01,14,20.50
2012,09,17,01,15,20.40
2012,09,17,01,16,20.40
2012,09,17,01,17,20.30
2012,09,17,01,18,20.30
2012,09,17,01,19,20.30
2012,09,17,01,20,20.20
2012,09,17,01,21,20.20
2012,09,17,01,22,20.20
2012,09,17,01,23,20.10
2012,09,17,01,24,20.10
2012,09,17,01,25,20.10
2012,09,17,01,26,20.10
2012,09,17,01,27,20.10
2012,09,17,01,28,20.00
2012,09,17,01,29,20.00
2012,09,17,01,30,19.90
2012,09,17,01,31,19.90
2012,09,17,01,32,19.90
2012,09,17,01,33,19.90
2012,09,17,01,34,19.90
2012,09,17,01,35,19.80
2012,09,17,01,36,19.80
2012,09,17,01,37,19.80
2012,09,17,01,38,19.70
2012,09,17,01,39,19.70
2012,09,17,01,40,19.70
2012,09,17,01,41,19.70
2012,09,17,01,42,19.60
2012,09,17,01,43,19.60
2012,09,17,01,44,19.60
2012,09,17,01,45,19.60
2012,09,17,01,46,19.60
2012,09,17,01,47,19.60
2012,09,17,01,48,19.60
2012,09,17,01,49,19.60
2012,09,17,01,50,19.60
2012,09,17,01,51,19.60
2012,09,17,01,52,19.60
2012,09,17,01,53,19.60
2012,09,17,01,54,19.50
2012,09,17,01,55,19.50
2012,09,17,01,56,19.50
2012,09,17,01,57,19.50
2012,09,17,01,58,19.50
2012,09,17,01,59,19.50
2012,09,17,02,00,19.50
2012,09,17,02,01,19.50
2012,09,17,02,02,19.50
2012,09,17,02,03,19.50
2012,09,17,02,04,19.50
2012,09,17,02,05,19.40
2012,09,17,02,06,19.40
2012,09,17,02,07,19.40
2012,09,17,02,08,19.40
2012,09,17,02,09,19.40
2012,09,17,02,10,19.40
2012,09,17,02,11,19.50
2012,09,17,02,12,19.50
2012,09,17,02,13,19.50
2012,09,17,02,14,19.60
2012,09,17,02,15,19.60
2012,09,17,02,16,19.70
2012,09,17,02,17,19.70
2012,09,17,02,18,19.70
2012,09,17,02,19,19.70
2012,09,17,02,20,19.80
2012,09,17,02,21,19.80
2012,09,17,02,22,19.80
2012,09,17,02,23,19.80
2012,09,17,02,24,19.80
2012,09,17,02,25,19.80
2012,09,17,02,26,19.80
2012,09,17,02,27,19.80
2012,09,17,02,28,19.80
2012,09,17,02,29,19.80
2012,09,17,02,30,19.80
2012,09,17,02,31,19.80
2012,09,17,02,32,19.80
2012,09,17,02,33,19.80
2012,09,17,02,34,19.70
2012,09,17,02,35,19.70
2012,09,17,02,36,19.70
2012,09,17,02,37,19.70
2012,09,17,02,38,19.70
2012,09,17,02,39,19.80
2012,09,17,02,40,19.80
2012,09,17,02,41,19.70
2012,09,17,02,42,19.70
2012,09,17,02,43,19.70
2012,09,17,02,44,19.70
2012,09,17,02,45,19.70
2012,09,17,02,46,19.70
2012,09,17,02,47,19.70
2012,09,17,02,48,19.70
2012,09,17,02,49,19.70
2012,09,17,02,50,19.70
2012,09,17,02,51,19.70
2012,09,17,02,52,19.70
2012,09,17,02,53,19.70
2012,09,17,02,54,19.70
2012,09,17,02,55,19.70
2012,09,17,02,56,19.60
2012,09,17,02,57,19.60
2012,09,17,02,58,19.60
2012,09,17,02,59,19.60
2012,09,17,03,00,19.60
2012,09,17,03,01,19.60
2012,09,17,03,02,19.60
2012,09,17,03,03,19.60
2012,09,17,03,04,19.50
2012,09,17,03,05,19.50
2012,09,17,03,06,19.50
2012,09,17,03,07,19.50
2012,09,17,03,08,19.50
2012,09,17,03,09,19.50
2012,09,17,03,10,19.60
2012,09,17,03,11,19.60
2012,09,17,03,12,19.60
2012,09,17,03,13,19.60
2012,09,17,03,14,19.60
2012,09,17,03,15,19.60
2012,09,17,03,16,19.60
2012,09,17,03,17,19.60
2012,09,17,03,18,19.60
2012,09,17,03,19,19.60
2012,09,17,03,20,19.60
2012,09,17,03,21,19.60
2012,09,17,03,22,19.60
2012,09,17,03,23,19.60
2012,09,17,03,24,19.60
2012,09,17,03,25,19.50
2012,09,17,03,26,19.60
2012,09,17,03,27,19.60
2012,09,17,03,28,19.60
2012,09,17,03,29,19.60
2012,09,17,03,30,19.50
2012,09,17,03,31,19.50
2012,09,17,03,32,19.50
2012,09,17,03,33,19.40
2012,09,17,03,34,19.40
2012,09,17,03,35,19.30
2012,09,17,03,36,19.30
2012,09,17,03,37,19.30
2012,09,17,03,38,19.20
2012,09,17,03,39,19.20
2012,09,17,03,40,19.20
2012,09,17,03,41,19.10
2012,09,17,03,42,19.00
2012,09,17,03,43,18.90
2012,09,17,03,44,18.80
2012,09,17,03,45,18.70
2012,09,17,03,46,18.60
2012,09,17,03,47,18.60
2012,09,17,03,48,18.50
2012,09,17,03,49,18.40
2012,09,17,03,50,18.30
2012,09,17,03,51,18.30
2012,09,17,03,52,18.10
2012,09,17,03,53,18.00
2012,09,17,03,54,17.90
2012,09,17,03,55,17.90
2012,09,17,03,56,17.80
2012,09,17,03,57,17.80
2012,09,17,03,58,17.80
2012,09,17,03,59,17.70
2012,09,17,04,00,17.70
2012,09,17,04,01,17.80
2012,09,17,04,02,17.80
2012,09,17,04,03,17.90
2012,09,17,04,04,17.90
2012,09,17,04,05,18.00
2012,09,17,04,06,18.00
2012,09,17,04,07,18.00
2012,09,17,04,08,18.10
2012,09,17,04,09,18.10
2012,09,17,04,10,18.10
2012,09,17,04,11,18.10
2012,09,17,04,12,18.10
2012,09,17,04,13,18.00
2012,09,17,04,14,18.00
2012,09,17,04,15,17.90
2012,09,17,04,16,17.70
2012,09,17,04,17,17.60
2012,09,17,04,18,17.50
2012,09,17,04,19,17.40
2012,09,17,04,20,17.40
2012,09,17,04,21,17.50
2012,09,17,04,22,17.60
2012,09,17,04,23,17.70
2012,09,17,04,24,17.80
2012,09,17,04,25,17.80
2012,09,17,04,26,17.70
2012,09,17,04,27,17.60
2012,09,17,04,28,17.60
2012,09,17,04,29,17.50
2012,09,17,04,30,17.40
2012,09,17,04,31,17.30
2012,09,17,04,32,17.30
2012,09,17,04,33,17.40
2012,09,17,04,34,17.40
2012,09,17,04,35,17.40
2012,09,17,04,36,17.40
2012,09,17,04,37,17.40
2012,09,17,04,38,17.40
2012,09,17,04,39,17.40
2012,09,17,04,40,17.40
2012,09,17,04,41,17.50
2012,09,17,04,42,17.50
2012,09,17,04,43,17.60
2012,09,17,04,44,17.60
2012,09,17,04,45,17.70
2012,09,17,04,46,17.80
2012,09,17,04,47,17.90
2012,09,17,04,48,18.00
2012,09,17,04,49,18.00
2012,09,17,04,50,18.10
2012,09,17,04,51,18.20
2012,09,17,04,52,18.20
2012,09,17,04,53,18.20
2012,09,17,04,54,18.30
2012,09,17,04,55,18.20
2012,09,17,04,56,18.20
2012,09,17,04,57,18.10
2012,09,17,04,58,18.10
2012,09,17,04,59,18.10
2012,09,17,05,00,18.10
2012,09,17,05,01,18.10
2012,09,17,05,02,18.00
2012,09,17,05,03,18.00
2012,09,17,05,04,17.90
2012,09,17,05,05,17.90
2012,09,17,05,06,17.80
2012,09,17,05,07,17.80
2012,09,17,05,08,17.70
2012,09,17,05,09,17.70
2012,09,17,05,10,17.60
2012,09,17,05,11,17.50
2012,09,17,05,12,17.50
2012,09,17,05,13,17.40
2012,09,17,05,14,17.40
2012,09,17,05,15,17.40
2012,09,17,05,16,17.40
2012,09,17,05,17,17.50
2012,09,17,05,18,17.50
2012,09,17,05,19,17.60
2012,09,17,05,20,17.60
2012,09,17,05,21,17.70
2012,09,17,05,22,17.70
2012,09,17,05,23,17.70
2012,09,17,05,24,17.70
2012,09,17,05,25,17.70
2012,09,17,05,26,17.70
2012,09,17,05,27,17.70
2012,09,17,05,28,17.70
2012,09,17,05,29,17.70
2012,09,17,05,30,17.60
2012,09,17,05,31,17.60
2012,09,17,05,32,17.60
2012,09,17,05,33,17.60
2012,09,17,05,34,17.60
2012,09,17,05,35,17.50
2012,09,17,05,36,17.50
2012,09,17,05,37,17.40
2012,09,17,05,38,17.40
2012,09,17,05,39,17.40
2012,09,17,05,40,17.40
2012,09,17,05,41,17.30
2012,09,17,05,42,17.30
2012,09,17,05,43,17.30
2012,09,17,05,44,17.30
2012,09,17,05,45,17.30
2012,09,17,05,46,17.40
2012,09,17,05,47,17.40
2012,09,17,05,48,17.50
2012,09,17,05,49,17.50
2012,09,17,05,50,17.50
2012,09,17,05,51,17.40
2012,09,17,05,52,17.40
2012,09,17,05,53,17.30
2012,09,17,05,54,17.20
2012,09,17,05,55,17.10
2012,09,17,05,56,17.10
2012,09,17,05,57,17.00
2012,09,17,05,58,16.90
2012,09,17,05,59,16.90
2012,09,17,06,00,16.80
2012,09,17,06,01,16.80
2012,09,17,06,02,16.80
2012,09,17,06,03,16.80
2012,09,17,06,04,16.70
2012,09,17,06,05,16.80
2012,09,17,06,06,16.80
2012,09,17,06,07,16.80
2012,09,17,06,08,16.80
2012,09,17,06,09,16.90
2012,09,17,06,10,16.90
2012,09,17,06,11,17.00
2012,09,17,06,12,17.10
2012,09,17,06,13,17.10
2012,09,17,06,14,17.10
2012,09,17,06,15,17.00
2012,09,17,06,16,16.90
2012,09,17,06,17,16.80
2012,09,17,06,18,16.70
2012,09,17,06,19,16.60
2012,09,17,06,20,16.50
2012,09,17,06,21,16.30
2012,09,17,06,22,16.20
2012,09,17,06,23,16.10
2012,09,17,06,24,16.00
2012,09,17,06,25,15.90
2012,09,17,06,26,15.80
2012,09,17,06,27,15.80
2012,09,17,06,28,15.70
2012,09,17,06,29,15.70
2012,09,17,06,30,15.70
2012,09,17,06,31,15.70
2012,09,17,06,32,15.70
2012,09,17,06,33,15.70
2012,09,17,06,34,15.80
2012,09,17,06,35,16.00
2012,09,17,06,36,16.30
2012,09,17,06,37,16.50
2012,09,17,06,38,16.70
2012,09,17,06,39,16.90
2012,09,17,06,40,17.00
2012,09,17,06,41,17.00
2012,09,17,06,42,17.10
2012,09,17,06,43,17.20
2012,09,17,06,44,17.20
2012,09,17,06,45,17.20
2012,09,17,06,46,17.30
2012,09,17,06,47,17.30
2012,09,17,06,48,17.30
2012,09,17,06,49,17.30
2012,09,17,06,50,17.30
2012,09,17,06,51,17.30
2012,09,17,06,52,17.30
2012,09,17,06,53,17.30
2012,09,17,06,54,17.20
2012,09,17,06,55,17.20
2012,09,17,06,56,17.20
2012,09,17,06,57,17.20
2012,09,17,06,58,17.20
2012,09,17,06,59,17.30
2012,09,17,07,00,17.30
2012,09,17,07,01,17.30
2012,09,17,07,02,17.30
2012,09,17,07,03,17.30
2012,09,17,07,04,17.30
2012,09,17,07,05,17.30
2012,09,17,07,06,17.30
2012,09,17,07,07,17.30
2012,09,17,07,08,17.30
2012,09,17,07,09,17.40
2012,09,17,07,10,17.40
2012,09,17,07,11,17.40
2012,09,17,07,12,17.40
2012,09,17,07,13,17.40
2012,09,17,07,14,17.40
2012,09,17,07,15,17.40
2012,09,17,07,16,17.40
2012,09,17,07,17,17.40
2012,09,17,07,18,17.40
2012,09,17,07,19,17.40
2012,09,17,07,20,17.40
2012,09,17,07,21,17.40
2012,09,17,07,22,17.40
2012,09,17,07,23,17.40
2012,09,17,07,24,17.40
2012,09,17,07,25,17.40
2012,09,17,07,26,17.50
2012,09,17,07,27,17.50
2012,09,17,07,28,17.50
2012,09,17,07,29,17.60
2012,09,17,07,30,17.60
2012,09,17,07,31,17.70
2012,09,17,07,32,17.70
2012,09,17,07,33,17.70
2012,09,17,07,34,17.80
2012,09,17,07,35,17.80
2012,09,17,07,36,17.90
2012,09,17,07,37,17.90
2012,09,17,07,38,18.00
2012,09,17,07,39,18.00
2012,09,17,07,40,18.00
2012,09,17,07,41,18.10
2012,09,17,07,42,18.10
2012,09,17,07,43,18.20
2012,09,17,07,44,18.20
2012,09,17,07,45,18.30
2012,09,17,07,46,18.30
2012,09,17,07,47,18.40
2012,09,17,07,48,18.50
2012,09,17,07,49,18.50
2012,09,17,07,50,18.60
2012,09,17,07,51,18.70
2012,09,17,07,52,18.70
2012,09,17,07,53,18.80
2012,09,17,07,54,18.80
2012,09,17,07,55,18.80
2012,09,17,07,56,18.80
2012,09,17,07,57,18.80
2012,09,17,07,58,18.80
2012,09,17,07,59,18.80
2012,09,17,08,00,18.90
2012,09,17,08,01,18.90
2012,09,17,08,02,18.80
2012,09,17,08,03,18.80
2012,09,17,08,04,18.80
2012,09,17,08,05,18.80
2012,09,17,08,06,18.80
2012,09,17,08,07,18.90
2012,09,17,08,08,18.90
2012,09,17,08,09,18.90
2012,09,17,08,10,18.90
2012,09,17,08,11,18.90
2012,09,17,08,12,18.90
2012,09,17,08,13,18.90
2012,09,17,08,14,18.90
2012,09,17,08,15,18.90
2012,09,17,08,16,18.90
2012,09,17,08,17,18.90
2012,09,17,08,18,19.00
2012,09,17,08,19,19.00
2012,09,17,08,20,19.00
2012,09,17,08,21,19.00
2012,09,17,08,22,18.90
2012,09,17,08,23,18.90
2012,09,17,08,24,18.90
2012,09,17,08,25,18.90
2012,09,17,08,26,18.80
2012,09,17,08,27,18.80
2012,09,17,08,28,18.80
2012,09,17,08,29,18.80
2012,09,17,08,30,18.80
2012,09,17,08,31,18.80
2012,09,17,08,32,18.80
2012,09,17,08,33,18.80
2012,09,17,08,34,18.80
2012,09,17,08,35,18.90
2012,09,17,08,36,18.90
2012,09,17,08,37,18.90
2012,09,17,08,38,18.90
2012,09,17,08,39,18.90
2012,09,17,08,40,19.00
2012,09,17,08,41,19.00
2012,09,17,08,42,19.00
2012,09,17,08,43,19.10
2012,09,17,08,44,19.10
2012,09,17,08,45,19.10
2012,09,17,08,46,19.20
2012,09,17,08,47,19.20
2012,09,17,08,48,19.30
2012,09,17,08,49,19.30
2012,09,17,08,50,19.40
2012,09,17,08,51,19.40
2012,09,17,08,52,19.40
2012,09,17,08,53,19.40
2012,09,17,08,54,19.40
2012,09,17,08,55,19.40
2012,09,17,08,56,19.40
2012,09,17,08,57,19.40
2012,09,17,08,58,19.30
2012,09,17,08,59,19.30
2012,09,17,09,00,19.20
2012,09,17,09,01,19.20
2012,09,17,09,02,19.20
2012,09,17,09,03,19.20
2012,09,17,09,04,19.10
2012,09,17,09,05,19.10
2012,09,17,09,06,19.10
2012,09,17,09,07,19.10
2012,09,17,09,08,19.00
2012,09,17,09,09,19.00
2012,09,17,09,10,18.90
2012,09,17,09,11,18.90
2012,09,17,09,12,18.90
2012,09,17,09,13,18.90
2012,09,17,09,14,18.80
2012,09,17,09,15,18.80
2012,09,17,09,16,18.80
2012,09,17,09,17,18.80
2012,09,17,09,18,18.90
2012,09,17,09,19,18.90
2012,09,17,09,20,18.90
2012,09,17,09,21,18.90
2012,09,17,09,22,19.00
2012,09,17,09,23,19.00
2012,09,17,09,24,19.00
2012,09,17,09,25,19.10
2012,09,17,09,26,19.10
2012,09,17,09,27,19.10
2012,09,17,09,28,19.20
2012,09,17,09,29,19.20
2012,09,17,09,30,19.20
2012,09,17,09,31,19.20
2012,09,17,09,32,19.20
2012,09,17,09,33,19.20
2012,09,17,09,34,19.30
2012,09,17,09,35,19.30
2012,09,17,09,36,19.30
2012,09,17,09,37,19.30
2012,09,17,09,38,19.30
2012,09,17,09,39,19.30
2012,09,17,09,40,19.30
2012,09,17,09,41,19.30
2012,09,17,09,42,19.30
2012,09,17,09,43,19.30
2012,09,17,09,44,19.30
2012,09,17,09,45,19.30
2012,09,17,09,46,19.20
2012,09,17,09,47,19.20
2012,09,17,09,48,19.20
2012,09,17,09,49,19.20
2012,09,17,09,50,19.20
2012,09,17,09,51,19.20
2012,09,17,09,52,19.20
2012,09,17,09,53,19.20
2012,09,17,09,54,19.20
2012,09,17,09,55,19.20
2012,09,17,09,56,19.20
2012,09,17,09,57,19.20
2012,09,17,09,58,19.20
2012,09,17,09,59,19.20
2012,09,17,10,00,19.30
2012,09,17,10,01,19.30
2012,09,17,10,02,19.40
2012,09,17,10,03,19.40
2012,09,17,10,04,19.50
2012,09,17,10,05,19.60
2012,09,17,10,06,19.60
2012,09,17,10,07,19.60
2012,09,17,10,08,19.70
2012,09,17,10,09,19.70
2012,09,17,10,10,19.70
2012,09,17,10,11,19.80
2012,09,17,10,12,19.80
2012,09,17,10,13,19.90
2012,09,17,10,14,19.90
2012,09,17,10,15,19.90
2012,09,17,10,16,19.90
2012,09,17,10,17,19.90
2012,09,17,10,18,19.90
2012,09,17,10,19,20.00
2012,09,17,10,20,20.00
2012,09,17,10,21,20.00
2012,09,17,10,22,20.10
2012,09,17,10,23,20.10
2012,09,17,10,24,20.10
2012,09,17,10,25,20.20
2012,09,17,10,26,20.20
2012,09,17,10,27,20.20
2012,09,17,10,28,20.30
2012,09,17,10,29,20.30
2012,09,17,10,30,20.30
2012,09,17,10,31,20.30
2012,09,17,10,32,20.20
2012,09,17,10,33,20.20
2012,09,17,10,34,20.20
2012,09,17,10,35,20.20
2012,09,17,10,36,20.20
2012,09,17,10,37,20.30
2012,09,17,10,38,20.30
2012,09,17,10,39,20.40
2012,09,17,10,40,20.40
2012,09,17,10,41,20.40
2012,09,17,10,42,20.40
2012,09,17,10,43,20.50
2012,09,17,10,44,20.60
2012,09,17,10,45,20.60
2012,09,17,10,46,20.70
2012,09,17,10,47,20.70
2012,09,17,10,48,20.80
2012,09,17,10,49,20.80
2012,09,17,10,50,20.90
2012,09,17,10,51,20.90
2012,09,17,10,52,21.00
2012,09,17,10,53,21.10
2012,09,17,10,54,21.10
2012,09,17,10,55,21.10
2012,09,17,10,56,21.10
2012,09,17,10,57,21.20
2012,09,17,10,58,21.20
2012,09,17,10,59,21.20
2012,09,17,11,00,21.20
2012,09,17,11,01,21.30
2012,09,17,11,02,21.30
2012,09,17,11,03,21.30
2012,09,17,11,04,21.30
2012,09,17,11,05,21.40
2012,09,17,11,06,21.40
2012,09,17,11,07,21.40
2012,09,17,11,08,21.40
2012,09,17,11,09,21.50
2012,09,17,11,10,21.50
2012,09,17,11,11,21.50
2012,09,17,11,12,21.50
2012,09,17,11,13,21.50
2012,09,17,11,14,21.60
2012,09,17,11,15,21.60
2012,09,17,11,16,21.60
2012,09,17,11,17,21.70
2012,09,17,11,18,21.70
2012,09,17,11,19,21.70
2012,09,17,11,20,21.70
2012,09,17,11,21,21.80
2012,09,17,11,22,21.80
2012,09,17,11,23,21.80
2012,09,17,11,24,21.80
2012,09,17,11,25,21.80
2012,09,17,11,26,21.80
2012,09,17,11,27,21.80
2012,09,17,11,28,21.80
2012,09,17,11,29,21.80
2012,09,17,11,30,21.70
2012,09,17,11,31,21.70
2012,09,17,11,32,21.70
2012,09,17,11,33,21.70
2012,09,17,11,34,21.60
2012,09,17,11,35,21.60
2012,09,17,11,36,21.60
2012,09,17,11,37,21.60
2012,09,17,11,38,21.70
2012,09,17,11,39,21.70
2012,09,17,11,40,21.80
2012,09,17,11,41,21.80
2012,09,17,11,42,21.80
2012,09,17,11,43,21.80
2012,09,17,11,44,21.90
2012,09,17,11,45,21.90
2012,09,17,11,46,21.90
2012,09,17,11,47,21.90
2012,09,17,11,48,21.90
2012,09,17,11,49,21.90
2012,09,17,11,50,21.90
2012,09,17,11,51,21.90
2012,09,17,11,52,21.90
2012,09,17,11,53,21.90
2012,09,17,11,54,21.90
2012,09,17,11,55,21.90
2012,09,17,11,56,21.90
2012,09,17,11,57,22.00
2012,09,17,11,58,22.00
2012,09,17,11,59,22.00
2012,09,17,12,00,22.00
2012,09,17,12,01,22.00
2012,09,17,12,02,22.00
2012,09,17,12,03,22.00
2012,09,17,12,04,22.10
2012,09,17,12,05,22.20
2012,09,17,12,06,22.20
2012,09,17,12,07,22.30
2012,09,17,12,08,22.30
2012,09,17,12,09,22.30
2012,09,17,12,10,22.40
2012,09,17,12,11,22.40
2012,09,17,12,12,22.30
2012,09,17,12,13,22.30
2012,09,17,12,14,22.30
2012,09,17,12,15,22.20
2012,09,17,12,16,22.20
2012,09,17,12,17,22.10
2012,09,17,12,18,22.00
2012,09,17,12,19,22.00
2012,09,17,12,20,22.00
2012,09,17,12,21,22.00
2012,09,17,12,22,22.00
2012,09,17,12,23,22.10
2012,09,17,12,24,22.10
2012,09,17,12,25,22.10
2012,09,17,12,26,22.10
2012,09,17,12,27,22.20
2012,09,17,12,28,22.20
2012,09,17,12,29,22.30
2012,09,17,12,30,22.30
2012,09,17,12,31,22.30
2012,09,17,12,32,22.30
2012,09,17,12,33,22.30
2012,09,17,12,34,22.40
2012,09,17,12,35,22.50
2012,09,17,12,36,22.60
2012,09,17,12,37,22.60
2012,09,17,12,38,22.60
2012,09,17,12,39,22.70
2012,09,17,12,40,22.70
2012,09,17,12,41,22.70
2012,09,17,12,42,22.80
2012,09,17,12,43,22.80
2012,09,17,12,44,22.80
2012,09,17,12,45,22.80
2012,09,17,12,46,22.80
2012,09,17,12,47,22.90
2012,09,17,12,48,22.90
2012,09,17,12,49,23.00
2012,09,17,12,50,23.10
2012,09,17,12,51,23.20
2012,09,17,12,52,23.20
2012,09,17,12,53,23.20
2012,09,17,12,54,23.20
2012,09,17,12,55,23.30
2012,09,17,12,56,23.30
2012,09,17,12,57,23.30
2012,09,17,12,58,23.40
2012,09,17,12,59,23.40
2012,09,17,13,00,23.40
2012,09,17,13,01,23.40
2012,09,17,13,02,23.40
2012,09,17,13,03,23.40
2012,09,17,13,04,23.40
2012,09,17,13,05,23.40
2012,09,17,13,06,23.50
2012,09,17,13,07,23.60
2012,09,17,13,08,23.70
2012,09,17,13,09,23.70
2012,09,17,13,10,23.80
2012,09,17,13,11,23.80
2012,09,17,13,12,23.80
2012,09,17,13,13,23.80
2012,09,17,13,14,23.80
2012,09,17,13,15,23.90
2012,09,17,13,16,24.00
2012,09,17,13,17,24.10
2012,09,17,13,18,24.10
2012,09,17,13,19,24.20
2012,09,17,13,20,24.20
2012,09,17,13,21,24.20
2012,09,17,13,22,24.20
2012,09,17,13,23,24.20
2012,09,17,13,24,24.20
2012,09,17,13,25,24.20
2012,09,17,13,26,24.20
2012,09,17,13,27,24.20
2012,09,17,13,28,24.20
2012,09,17,13,29,24.20
2012,09,17,13,30,24.20
2012,09,17,13,31,24.20
2012,09,17,13,32,24.20
2012,09,17,13,33,24.20
2012,09,17,13,34,24.20
2012,09,17,13,35,24.10
2012,09,17,13,36,24.10
2012,09,17,13,37,24.10
2012,09,17,13,38,24.10
2012,09,17,13,39,24.20
2012,09,17,13,40,24.20
2012,09,17,13,41,24.20
2012,09,17,13,42,24.20
2012,09,17,13,43,24.20
2012,09,17,13,44,24.20
2012,09,17,13,45,24.20
2012,09,17,13,46,24.20
2012,09,17,13,47,24.30
2012,09,17,13,48,24.30
2012,09,17,13,49,24.40
2012,09,17,13,50,24.40
2012,09,17,13,51,24.40
2012,09,17,13,52,24.40
2012,09,17,13,53,24.40
2012,09,17,13,54,24.40
2012,09,17,13,55,24.40
2012,09,17,13,56,24.40
2012,09,17,13,57,24.40
2012,09,17,13,58,24.40
2012,09,17,13,59,24.40
2012,09,17,14,00,24.30
2012,09,17,14,01,24.30
2012,09,17,14,02,24.30
2012,09,17,14,03,24.30
2012,09,17,14,04,24.20
2012,09,17,14,05,24.20
2012,09,17,14,06,24.20
2012,09,17,14,07,24.20
2012,09,17,14,08,24.30
2012,09,17,14,09,24.30
2012,09,17,14,10,24.30
2012,09,17,14,11,24.30
2012,09,17,14,12,24.40
2012,09,17,14,13,24.40
2012,09,17,14,14,24.40
2012,09,17,14,15,24.40
2012,09,17,14,16,24.50
2012,09,17,14,17,24.50
2012,09,17,14,18,24.50
2012,09,17,14,19,24.60
2012,09,17,14,20,24.50
2012,09,17,14,21,24.50
2012,09,17,14,22,24.40
2012,09,17,14,23,24.50
2012,09,17,14,24,24.60
2012,09,17,14,25,24.60
2012,09,17,14,26,24.60
2012,09,17,14,27,24.70
2012,09,17,14,28,24.80
2012,09,17,14,29,24.80
2012,09,17,14,30,24.90
2012,09,17,14,31,25.00
2012,09,17,14,32,25.00
2012,09,17,14,33,25.00
2012,09,17,14,34,25.00
2012,09,17,14,35,24.90
2012,09,17,14,36,24.90
2012,09,17,14,37,24.90
2012,09,17,14,38,25.00
2012,09,17,14,39,25.00
2012,09,17,14,40,25.10
2012,09,17,14,41,25.10
2012,09,17,14,42,25.10
2012,09,17,14,43,25.20
2012,09,17,14,44,25.20
2012,09,17,14,45,25.30
2012,09,17,14,46,25.40
2012,09,17,14,47,25.40
2012,09,17,14,48,25.40
2012,09,17,14,49,25.40
2012,09,17,14,50,25.50
2012,09,17,14,51,25.50
2012,09,17,14,52,25.50
2012,09,17,14,53,25.50
2012,09,17,14,54,25.50
2012,09,17,14,55,25.50
2012,09,17,14,56,25.60
2012,09,17,14,57,25.60
2012,09,17,14,58,25.60
2012,09,17,14,59,25.60
2012,09,17,15,00,25.70
2012,09,17,15,01,25.80
2012,09,17,15,02,25.80
2012,09,17,15,03,25.90
2012,09,17,15,04,25.90
2012,09,17,15,05,25.90
2012,09,17,15,06,25.90
2012,09,17,15,07,25.90
2012,09,17,15,08,25.90
2012,09,17,15,09,25.80
2012,09,17,15,10,25.80
2012,09,17,15,11,25.80
2012,09,17,15,12,25.80
2012,09,17,15,13,25.80
2012,09,17,15,14,25.80
2012,09,17,15,15,25.80
2012,09,17,15,16,25.90
2012,09,17,15,17,25.90
2012,09,17,15,18,25.90
2012,09,17,15,19,26.00
2012,09,17,15,20,26.00
2012,09,17,15,21,26.00
2012,09,17,15,22,26.00
2012,09,17,15,23,26.00
2012,09,17,15,24,26.00
2012,09,17,15,25,26.00
2012,09,17,15,26,26.00
2012,09,17,15,27,26.00
2012,09,17,15,28,26.00
2012,09,17,15,29,26.00
2012,09,17,15,30,26.10
2012,09,17,15,31,26.10
2012,09,17,15,32,26.10
2012,09,17,15,33,26.10
2012,09,17,15,34,26.10
2012,09,17,15,35,26.10
2012,09,17,15,36,26.10
2012,09,17,15,37,26.20
2012,09,17,15,38,26.20
2012,09,17,15,39,26.20
2012,09,17,15,40,26.30
2012,09,17,15,41,26.30
2012,09,17,15,42,26.30
2012,09,17,15,43,26.30
2012,09,17,15,44,26.30
2012,09,17,15,45,26.30
2012,09,17,15,46,26.20
2012,09,17,15,47,26.20
2012,09,17,15,48,26.10
2012,09,17,15,49,26.10
2012,09,17,15,50,26.10
2012,09,17,15,51,26.10
2012,09,17,15,52,26.00
2012,09,17,15,53,25.90
2012,09,17,15,54,25.90
2012,09,17,15,55,25.80
2012,09,17,15,56,25.90
2012,09,17,15,57,25.90
2012,09,17,15,58,25.90
2012,09,17,15,59,25.90
2012,09,17,16,00,25.90
2012,09,17,16,01,25.90
2012,09,17,16,02,25.90
2012,09,17,16,03,26.00
2012,09,17,16,04,26.00
2012,09,17,16,05,25.90
2012,09,17,16,06,25.90
2012,09,17,16,07,25.90
2012,09,17,16,08,25.90
2012,09,17,16,09,25.90
2012,09,17,16,10,25.90
2012,09,17,16,11,25.90
2012,09,17,16,12,25.90
2012,09,17,16,13,25.90
2012,09,17,16,14,25.90
2012,09,17,16,15,25.90
2012,09,17,16,16,25.90
2012,09,17,16,17,25.90
2012,09,17,16,18,25.90
2012,09,17,16,19,26.00
2012,09,17,16,20,26.10
2012,09,17,16,21,26.10
2012,09,17,16,22,26.10
2012,09,17,16,23,26.10
2012,09,17,16,24,26.10
2012,09,17,16,25,26.10
2012,09,17,16,26,26.10
2012,09,17,16,27,26.10
2012,09,17,16,28,26.20
2012,09,17,16,29,26.10
2012,09,17,16,30,26.10
2012,09,17,16,31,26.00
2012,09,17,16,32,26.00
2012,09,17,16,33,25.90
2012,09,17,16,34,25.90
2012,09,17,16,35,25.90
2012,09,17,16,36,25.90
2012,09,17,16,37,25.90
2012,09,17,16,38,25.90
2012,09,17,16,39,25.90
2012,09,17,16,40,25.80
2012,09,17,16,41,25.80
2012,09,17,16,42,25.80
2012,09,17,16,43,25.80
2012,09,17,16,44,25.80
2012,09,17,16,45,25.80
2012,09,17,16,46,25.70
2012,09,17,16,47,25.70
2012,09,17,16,48,25.70
2012,09,17,16,49,25.70
2012,09,17,16,50,25.80
2012,09,17,16,51,25.80
2012,09,17,16,52,25.80
2012,09,17,16,53,25.80
2012,09,17,16,54,25.80
2012,09,17,16,55,25.80
2012,09,17,16,56,25.80
2012,09,17,16,57,25.80
2012,09,17,16,58,25.80
2012,09,17,16,59,25.70
2012,09,17,17,00,25.70
2012,09,17,17,01,25.70
2012,09,17,17,02,25.70
2012,09,17,17,03,25.70
2012,09,17,17,04,25.70
2012,09,17,17,05,25.70
2012,09,17,17,06,25.70
2012,09,17,17,07,25.70
2012,09,17,17,08,25.70
2012,09,17,17,09,25.60
2012,09,17,17,10,25.70
2012,09,17,17,11,25.70
2012,09,17,17,12,25.60
2012,09,17,17,13,25.60
2012,09,17,17,14,25.60
2012,09,17,17,15,25.60
2012,09,17,17,16,25.60
2012,09,17,17,17,25.60
2012,09,17,17,18,25.60
2012,09,17,17,19,25.70